Year,Month,Day,Hour,Minute,Value (Times are PST for temperature in C)
2016,05,06,00,00,9.80
2016,05,06,00,01,9.80
2016,05,06,00,02,9.70
2016,05,06,00,03,9.70
2016,05,06,00,04,9.70
2016,05,06,00,05,9.70
2016,05,06,00,06,9.70
2016,05,06,00,07,9.70
2016,05,06,00,08,9.60
2016,05,06,00,09,9.60
2016,05,06,00,10,9.60
2016,05,06,00,11,9.60
2016,05,06,00,12,9.60
2016,05,06,00,13,9.50
2016,05,06,00,14,9.50
2016,05,06,00,15,9.40
2016,05,06,00,16,9.40
2016,05,06,00,17,9.40
2016,05,06,00,18,9.30
2016,05,06,00,19,9.30
2016,05,06,00,20,9.30
2016,05,06,00,21,9.30
2016,05,06,00,22,9.20
2016,05,06,00,23,9.20
2016,05,06,00,24,9.20
2016,05,06,00,25,9.20
2016,05,06,00,26,9.10
2016,05,06,00,27,9.10
2016,05,06,00,28,9.00
2016,05,06,00,29,9.00
2016,05,06,00,30,9.00
2016,05,06,00,31,8.90
2016,05,06,00,32,8.90
2016,05,06,00,33,8.90
2016,05,06,00,34,8.90
2016,05,06,00,35,8.80
2016,05,06,00,36,8.80
2016,05,06,00,37,8.80
2016,05,06,00,38,8.80
2016,05,06,00,39,8.80
2016,05,06,00,40,8.80
2016,05,06,00,41,8.70
2016,05,06,00,42,8.70
2016,05,06,00,43,8.70
2016,05,06,00,44,8.70
2016,05,06,00,45,8.70
2016,05,06,00,46,8.60
2016,05,06,00,47,8.60
2016,05,06,00,48,8.60
2016,05,06,00,49,8.60
2016,05,06,00,50,8.60
2016,05,06,00,51,8.60
2016,05,06,00,52,8.60
2016,05,06,00,53,8.60
2016,05,06,00,54,8.60
2016,05,06,00,55,8.60
2016,05,06,00,56,8.60
2016,05,06,00,57,8.70
2016,05,06,00,58,8.70
2016,05,06,00,59,8.70
2016,05,06,01,00,8.60
2016,05,06,01,01,8.60
2016,05,06,01,02,8.60
2016,05,06,01,03,8.60
2016,05,06,01,04,8.60
2016,05,06,01,05,8.60
2016,05,06,01,06,8.60
2016,05,06,01,07,8.60
2016,05,06,01,08,8.60
2016,05,06,01,09,8.60
2016,05,06,01,10,8.60
2016,05,06,01,11,8.50
2016,05,06,01,12,8.50
2016,05,06,01,13,8.40
2016,05,06,01,14,8.40
2016,05,06,01,15,8.30
2016,05,06,01,16,8.30
2016,05,06,01,17,8.30
2016,05,06,01,18,8.30
2016,05,06,01,19,8.20
2016,05,06,01,20,8.20
2016,05,06,01,21,8.20
2016,05,06,01,22,8.10
2016,05,06,01,23,8.10
2016,05,06,01,24,8.10
2016,05,06,01,25,8.10
2016,05,06,01,26,8.10
2016,05,06,01,27,8.10
2016,05,06,01,28,8.10
2016,05,06,01,29,8.10
2016,05,06,01,30,8.10
2016,05,06,01,31,8.10
2016,05,06,01,32,8.10
2016,05,06,01,33,8.10
2016,05,06,01,34,8.10
2016,05,06,01,35,8.00
2016,05,06,01,36,8.00
2016,05,06,01,37,8.00
2016,05,06,01,38,7.90
2016,05,06,01,39,7.90
2016,05,06,01,40,7.90
2016,05,06,01,41,7.90
2016,05,06,01,42,7.80
2016,05,06,01,43,7.80
2016,05,06,01,44,7.80
2016,05,06,01,45,7.70
2016,05,06,01,46,7.70
2016,05,06,01,47,7.60
2016,05,06,01,48,7.60
2016,05,06,01,49,7.60
2016,05,06,01,50,7.50
2016,05,06,01,51,7.50
2016,05,06,01,52,7.40
2016,05,06,01,53,7.40
2016,05,06,01,54,7.40
2016,05,06,01,55,7.40
2016,05,06,01,56,7.30
2016,05,06,01,57,7.30
2016,05,06,01,58,7.30
2016,05,06,01,59,7.20
2016,05,06,02,00,7.20
2016,05,06,02,01,7.20
2016,05,06,02,02,7.20
2016,05,06,02,03,7.10
2016,05,06,02,04,7.10
2016,05,06,02,05,7.10
2016,05,06,02,06,7.10
2016,05,06,02,07,7.10
2016,05,06,02,08,7.00
2016,05,06,02,09,7.00
2016,05,06,02,10,7.00
2016,05,06,02,11,6.90
2016,05,06,02,12,6.90
2016,05,06,02,13,6.90
2016,05,06,02,14,6.90
2016,05,06,02,15,6.90
2016,05,06,02,16,6.90
2016,05,06,02,17,6.80
2016,05,06,02,18,6.80
2016,05,06,02,19,6.80
2016,05,06,02,20,6.80
2016,05,06,02,21,6.80
2016,05,06,02,22,6.80
2016,05,06,02,23,6.80
2016,05,06,02,24,6.70
2016,05,06,02,25,6.70
2016,05,06,02,26,6.70
2016,05,06,02,27,6.70
2016,05,06,02,28,6.70
2016,05,06,02,29,6.70
2016,05,06,02,30,6.60
2016,05,06,02,31,6.60
2016,05,06,02,32,6.60
2016,05,06,02,33,6.60
2016,05,06,02,34,6.60
2016,05,06,02,35,6.60
2016,05,06,02,36,6.50
2016,05,06,02,37,6.50
2016,05,06,02,38,6.50
2016,05,06,02,39,6.50
2016,05,06,02,40,6.40
2016,05,06,02,41,6.40
2016,05,06,02,42,6.40
2016,05,06,02,43,6.40
2016,05,06,02,44,6.40
2016,05,06,02,45,6.40
2016,05,06,02,46,6.30
2016,05,06,02,47,6.30
2016,05,06,02,48,6.30
2016,05,06,02,49,6.30
2016,05,06,02,50,6.30
2016,05,06,02,51,6.20
2016,05,06,02,52,6.20
2016,05,06,02,53,6.20
2016,05,06,02,54,6.20
2016,05,06,02,55,6.20
2016,05,06,02,56,6.20
2016,05,06,02,57,6.20
2016,05,06,02,58,6.20
2016,05,06,02,59,6.20
2016,05,06,03,00,6.10
2016,05,06,03,01,6.10
2016,05,06,03,02,6.10
2016,05,06,03,03,6.10
2016,05,06,03,04,6.10
2016,05,06,03,05,6.10
2016,05,06,03,06,6.00
2016,05,06,03,07,6.00
2016,05,06,03,08,6.00
2016,05,06,03,09,5.90
2016,05,06,03,10,5.90
2016,05,06,03,11,5.90
2016,05,06,03,12,5.90
2016,05,06,03,13,5.90
2016,05,06,03,14,5.90
2016,05,06,03,15,5.90
2016,05,06,03,16,5.90
2016,05,06,03,17,5.80
2016,05,06,03,18,5.80
2016,05,06,03,19,5.80
2016,05,06,03,20,5.80
2016,05,06,03,21,5.80
2016,05,06,03,22,5.80
2016,05,06,03,23,5.80
2016,05,06,03,24,5.70
2016,05,06,03,25,5.70
2016,05,06,03,26,5.70
2016,05,06,03,27,5.70
2016,05,06,03,28,5.70
2016,05,06,03,29,5.70
2016,05,06,03,30,5.70
2016,05,06,03,31,5.60
2016,05,06,03,32,5.60
2016,05,06,03,33,5.60
2016,05,06,03,34,5.60
2016,05,06,03,35,5.60
2016,05,06,03,36,5.60
2016,05,06,03,37,5.50
2016,05,06,03,38,5.50
2016,05,06,03,39,5.50
2016,05,06,03,40,5.50
2016,05,06,03,41,5.50
2016,05,06,03,42,5.50
2016,05,06,03,43,5.50
2016,05,06,03,44,5.40
2016,05,06,03,45,5.40
2016,05,06,03,46,5.40
2016,05,06,03,47,5.40
2016,05,06,03,48,5.40
2016,05,06,03,49,5.40
2016,05,06,03,50,5.40
2016,05,06,03,51,5.40
2016,05,06,03,52,5.40
2016,05,06,03,53,5.40
2016,05,06,03,54,5.30
2016,05,06,03,55,5.30
2016,05,06,03,56,5.30
2016,05,06,03,57,5.30
2016,05,06,03,58,5.30
2016,05,06,03,59,5.30
2016,05,06,04,00,5.30
2016,05,06,04,01,5.30
2016,05,06,04,02,5.30
2016,05,06,04,03,5.20
2016,05,06,04,04,5.20
2016,05,06,04,05,5.20
2016,05,06,04,06,5.20
2016,05,06,04,07,5.20
2016,05,06,04,08,5.20
2016,05,06,04,09,5.20
2016,05,06,04,10,5.20
2016,05,06,04,11,5.20
2016,05,06,04,12,5.10
2016,05,06,04,13,5.10
2016,05,06,04,14,5.10
2016,05,06,04,15,5.10
2016,05,06,04,16,5.10
2016,05,06,04,17,5.10
2016,05,06,04,18,5.10
2016,05,06,04,19,5.00
2016,05,06,04,20,5.00
2016,05,06,04,21,5.00
2016,05,06,04,22,5.00
2016,05,06,04,23,4.90
2016,05,06,04,24,4.90
2016,05,06,04,25,4.90
2016,05,06,04,26,4.90
2016,05,06,04,27,4.90
2016,05,06,04,28,4.90
2016,05,06,04,29,4.90
2016,05,06,04,30,4.80
2016,05,06,04,31,4.80
2016,05,06,04,32,4.80
2016,05,06,04,33,4.80
2016,05,06,04,34,4.80
2016,05,06,04,35,4.80
2016,05,06,04,36,4.80
2016,05,06,04,37,4.80
2016,05,06,04,38,4.80
2016,05,06,04,39,4.80
2016,05,06,04,40,4.70
2016,05,06,04,41,4.70
2016,05,06,04,42,4.70
2016,05,06,04,43,4.70
2016,05,06,04,44,4.70
2016,05,06,04,45,4.70
2016,05,06,04,46,4.60
2016,05,06,04,47,4.60
2016,05,06,04,48,4.60
2016,05,06,04,49,4.60
2016,05,06,04,50,4.60
2016,05,06,04,51,4.60
2016,05,06,04,52,4.60
2016,05,06,04,53,4.60
2016,05,06,04,54,4.60
2016,05,06,04,55,4.50
2016,05,06,04,56,4.50
2016,05,06,04,57,4.50
2016,05,06,04,58,4.50
2016,05,06,04,59,4.50
2016,05,06,05,00,4.50
2016,05,06,05,01,4.40
2016,05,06,05,02,4.40
2016,05,06,05,03,4.40
2016,05,06,05,04,4.40
2016,05,06,05,05,4.40
2016,05,06,05,06,4.40
2016,05,06,05,07,4.40
2016,05,06,05,08,4.40
2016,05,06,05,09,4.40
2016,05,06,05,10,4.40
2016,05,06,05,11,4.40
2016,05,06,05,12,4.40
2016,05,06,05,13,4.40
2016,05,06,05,14,4.40
2016,05,06,05,15,4.40
2016,05,06,05,16,4.40
2016,05,06,05,17,4.30
2016,05,06,05,18,4.30
2016,05,06,05,19,4.30
2016,05,06,05,20,4.30
2016,05,06,05,21,4.30
2016,05,06,05,22,4.30
2016,05,06,05,23,4.30
2016,05,06,05,24,4.30
2016,05,06,05,25,4.30
2016,05,06,05,26,4.30
2016,05,06,05,27,4.30
2016,05,06,05,28,4.30
2016,05,06,05,29,4.20
2016,05,06,05,30,4.20
2016,05,06,05,31,4.20
2016,05,06,05,32,4.20
2016,05,06,05,33,4.20
2016,05,06,05,34,4.20
2016,05,06,05,35,4.20
2016,05,06,05,36,4.20
2016,05,06,05,37,4.20
2016,05,06,05,38,4.10
2016,05,06,05,39,4.10
2016,05,06,05,40,4.10
2016,05,06,05,41,4.10
2016,05,06,05,42,4.10
2016,05,06,05,43,4.10
2016,05,06,05,44,4.00
2016,05,06,05,45,4.00
2016,05,06,05,46,4.00
2016,05,06,05,47,4.00
2016,05,06,05,48,4.00
2016,05,06,05,49,4.00
2016,05,06,05,50,4.00
2016,05,06,05,51,3.90
2016,05,06,05,52,3.90
2016,05,06,05,53,3.90
2016,05,06,05,54,3.90
2016,05,06,05,55,3.90
2016,05,06,05,56,3.90
2016,05,06,05,57,3.90
2016,05,06,05,58,3.90
2016,05,06,05,59,3.90
2016,05,06,06,00,3.90
2016,05,06,06,01,3.80
2016,05,06,06,02,3.80
2016,05,06,06,03,3.80
2016,05,06,06,04,3.80
2016,05,06,06,05,3.80
2016,05,06,06,06,3.80
2016,05,06,06,07,3.80
2016,05,06,06,08,3.80
2016,05,06,06,09,3.80
2016,05,06,06,10,3.80
2016,05,06,06,11,3.80
2016,05,06,06,12,3.80
2016,05,06,06,13,3.80
2016,05,06,06,14,3.80
2016,05,06,06,15,3.80
2016,05,06,06,16,3.80
2016,05,06,06,17,3.80
2016,05,06,06,18,3.80
2016,05,06,06,19,3.80
2016,05,06,06,20,3.80
2016,05,06,06,21,3.80
2016,05,06,06,22,3.80
2016,05,06,06,23,3.80
2016,05,06,06,24,3.80
2016,05,06,06,25,3.80
2016,05,06,06,26,3.80
2016,05,06,06,27,3.80
2016,05,06,06,28,3.80
2016,05,06,06,29,3.80
2016,05,06,06,30,3.70
2016,05,06,06,31,3.70
2016,05,06,06,32,3.70
2016,05,06,06,33,3.70
2016,05,06,06,34,3.70
2016,05,06,06,35,3.70
2016,05,06,06,36,3.70
2016,05,06,06,37,3.70
2016,05,06,06,38,3.70
2016,05,06,06,39,3.70
2016,05,06,06,40,3.70
2016,05,06,06,41,3.70
2016,05,06,06,42,3.70
2016,05,06,06,43,3.70
2016,05,06,06,44,3.70
2016,05,06,06,45,3.70
2016,05,06,06,46,3.70
2016,05,06,06,47,3.70
2016,05,06,06,48,3.70
2016,05,06,06,49,3.70
2016,05,06,06,50,3.70
2016,05,06,06,51,3.70
2016,05,06,06,52,3.70
2016,05,06,06,53,3.70
2016,05,06,06,54,3.70
2016,05,06,06,55,3.70
2016,05,06,06,56,3.70
2016,05,06,06,57,3.70
2016,05,06,06,58,3.70
2016,05,06,06,59,3.70
2016,05,06,07,00,3.70
2016,05,06,07,01,3.70
2016,05,06,07,02,3.70
2016,05,06,07,03,3.70
2016,05,06,07,04,3.70
2016,05,06,07,05,3.70
2016,05,06,07,06,3.80
2016,05,06,07,07,3.80
2016,05,06,07,08,3.80
2016,05,06,07,09,3.80
2016,05,06,07,10,3.80
2016,05,06,07,11,3.80
2016,05,06,07,12,3.80
2016,05,06,07,13,3.80
2016,05,06,07,14,3.80
2016,05,06,07,15,3.90
2016,05,06,07,16,3.90
2016,05,06,07,17,4.00
2016,05,06,07,18,4.00
2016,05,06,07,19,4.10
2016,05,06,07,20,4.20
2016,05,06,07,21,4.30
2016,05,06,07,22,4.40
2016,05,06,07,23,4.50
2016,05,06,07,24,4.60
2016,05,06,07,25,4.60
2016,05,06,07,26,4.70
2016,05,06,07,27,4.80
2016,05,06,07,28,4.80
2016,05,06,07,29,4.90
2016,05,06,07,30,5.00
2016,05,06,07,31,5.10
2016,05,06,07,32,5.20
2016,05,06,07,33,5.30
2016,05,06,07,34,5.40
2016,05,06,07,35,5.50
2016,05,06,07,36,5.50
2016,05,06,07,37,5.60
2016,05,06,07,38,5.70
2016,05,06,07,39,5.80
2016,05,06,07,40,5.80
2016,05,06,07,41,5.90
2016,05,06,07,42,6.00
2016,05,06,07,43,6.10
2016,05,06,07,44,6.20
2016,05,06,07,45,6.30
2016,05,06,07,46,6.40
2016,05,06,07,47,6.50
2016,05,06,07,48,6.60
2016,05,06,07,49,6.70
2016,05,06,07,50,6.80
2016,05,06,07,51,6.90
2016,05,06,07,52,7.00
2016,05,06,07,53,7.10
2016,05,06,07,54,7.20
2016,05,06,07,55,7.30
2016,05,06,07,56,7.30
2016,05,06,07,57,7.40
2016,05,06,07,58,7.50
2016,05,06,07,59,7.50
2016,05,06,08,00,7.50
2016,05,06,08,01,7.60
2016,05,06,08,02,7.60
2016,05,06,08,03,7.60
2016,05,06,08,04,7.70
2016,05,06,08,05,7.70
2016,05,06,08,06,7.70
2016,05,06,08,07,7.80
2016,05,06,08,08,7.90
2016,05,06,08,09,8.00
2016,05,06,08,10,8.10
2016,05,06,08,11,8.20
2016,05,06,08,12,8.30
2016,05,06,08,13,8.40
2016,05,06,08,14,8.50
2016,05,06,08,15,8.60
2016,05,06,08,16,8.70
2016,05,06,08,17,8.80
2016,05,06,08,18,8.80
2016,05,06,08,19,8.90
2016,05,06,08,20,8.90
2016,05,06,08,21,9.00
2016,05,06,08,22,9.00
2016,05,06,08,23,9.10
2016,05,06,08,24,9.10
2016,05,06,08,25,9.20
2016,05,06,08,26,9.20
2016,05,06,08,27,9.30
2016,05,06,08,28,9.30
2016,05,06,08,29,9.30
2016,05,06,08,30,9.30
2016,05,06,08,31,9.40
2016,05,06,08,32,9.40
2016,05,06,08,33,9.50
2016,05,06,08,34,9.60
2016,05,06,08,35,9.60
2016,05,06,08,36,9.70
2016,05,06,08,37,9.70
2016,05,06,08,38,9.80
2016,05,06,08,39,9.80
2016,05,06,08,40,9.80
2016,05,06,08,41,9.90
2016,05,06,08,42,9.90
2016,05,06,08,43,10.00
2016,05,06,08,44,10.00
2016,05,06,08,45,10.00
2016,05,06,08,46,10.10
2016,05,06,08,47,10.10
2016,05,06,08,48,10.20
2016,05,06,08,49,10.20
2016,05,06,08,50,10.20
2016,05,06,08,51,10.20
2016,05,06,08,52,10.20
2016,05,06,08,53,10.20
2016,05,06,08,54,10.20
2016,05,06,08,55,10.30
2016,05,06,08,56,10.40
2016,05,06,08,57,10.50
2016,05,06,08,58,10.50
2016,05,06,08,59,10.60
2016,05,06,09,00,10.70
2016,05,06,09,01,10.80
2016,05,06,09,02,10.80
2016,05,06,09,03,10.90
2016,05,06,09,04,10.90
2016,05,06,09,05,10.90
2016,05,06,09,06,10.90
2016,05,06,09,07,10.90
2016,05,06,09,08,10.90
2016,05,06,09,09,10.90
2016,05,06,09,10,10.90
2016,05,06,09,11,10.90
2016,05,06,09,12,10.90
2016,05,06,09,13,11.00
2016,05,06,09,14,11.00
2016,05,06,09,15,11.10
2016,05,06,09,16,11.10
2016,05,06,09,17,11.10
2016,05,06,09,18,11.20
2016,05,06,09,19,11.30
2016,05,06,09,20,11.30
2016,05,06,09,21,11.40
2016,05,06,09,22,11.50
2016,05,06,09,23,11.60
2016,05,06,09,24,11.70
2016,05,06,09,25,11.80
2016,05,06,09,26,11.80
2016,05,06,09,27,11.90
2016,05,06,09,28,11.90
2016,05,06,09,29,12.00
2016,05,06,09,30,12.10
2016,05,06,09,31,12.20
2016,05,06,09,32,12.30
2016,05,06,09,33,12.40
2016,05,06,09,34,12.50
2016,05,06,09,35,12.60
2016,05,06,09,36,12.60
2016,05,06,09,37,12.70
2016,05,06,09,38,12.80
2016,05,06,09,39,12.90
2016,05,06,09,40,13.00
2016,05,06,09,41,13.00
2016,05,06,09,42,13.00
2016,05,06,09,43,13.00
2016,05,06,09,44,13.00
2016,05,06,09,45,12.90
2016,05,06,09,46,12.90
2016,05,06,09,47,12.90
2016,05,06,09,48,12.90
2016,05,06,09,49,13.00
2016,05,06,09,50,13.00
2016,05,06,09,51,13.10
2016,05,06,09,52,13.20
2016,05,06,09,53,13.20
2016,05,06,09,54,13.20
2016,05,06,09,55,13.20
2016,05,06,09,56,13.20
2016,05,06,09,57,13.20
2016,05,06,09,58,13.20
2016,05,06,09,59,13.20
2016,05,06,10,00,13.20
2016,05,06,10,01,13.30
2016,05,06,10,02,13.30
2016,05,06,10,03,13.40
2016,05,06,10,04,13.50
2016,05,06,10,05,13.50
2016,05,06,10,06,13.60
2016,05,06,10,07,13.60
2016,05,06,10,08,13.70
2016,05,06,10,09,13.70
2016,05,06,10,10,13.80
2016,05,06,10,11,14.00
2016,05,06,10,12,14.10
2016,05,06,10,13,14.20
2016,05,06,10,14,14.30
2016,05,06,10,15,14.40
2016,05,06,10,16,14.60
2016,05,06,10,17,14.70
2016,05,06,10,18,14.80
2016,05,06,10,19,14.80
2016,05,06,10,20,14.80
2016,05,06,10,21,14.90
2016,05,06,10,22,14.90
2016,05,06,10,23,14.90
2016,05,06,10,24,14.90
2016,05,06,10,25,15.00
2016,05,06,10,26,15.00
2016,05,06,10,27,15.10
2016,05,06,10,28,15.10
2016,05,06,10,29,15.20
2016,05,06,10,30,15.30
2016,05,06,10,31,15.40
2016,05,06,10,32,15.50
2016,05,06,10,33,15.50
2016,05,06,10,34,15.60
2016,05,06,10,35,15.60
2016,05,06,10,36,15.60
2016,05,06,10,37,15.60
2016,05,06,10,38,15.60
2016,05,06,10,39,15.60
2016,05,06,10,40,15.60
2016,05,06,10,41,15.70
2016,05,06,10,42,15.80
2016,05,06,10,43,15.90
2016,05,06,10,44,15.90
2016,05,06,10,45,16.00
2016,05,06,10,46,16.10
2016,05,06,10,47,16.10
2016,05,06,10,48,16.20
2016,05,06,10,49,16.30
2016,05,06,10,50,16.40
2016,05,06,10,51,16.40
2016,05,06,10,52,16.50
2016,05,06,10,53,16.70
2016,05,06,10,54,16.80
2016,05,06,10,55,16.90
2016,05,06,10,56,17.00
2016,05,06,10,57,17.10
2016,05,06,10,58,17.20
2016,05,06,10,59,17.30
2016,05,06,11,00,17.30
2016,05,06,11,01,17.30
2016,05,06,11,02,17.30
2016,05,06,11,03,17.30
2016,05,06,11,04,17.30
2016,05,06,11,05,17.30
2016,05,06,11,06,17.30
2016,05,06,11,07,17.30
2016,05,06,11,08,17.30
2016,05,06,11,09,17.30
2016,05,06,11,10,17.30
2016,05,06,11,11,17.30
2016,05,06,11,12,17.30
2016,05,06,11,13,17.40
2016,05,06,11,14,17.50
2016,05,06,11,15,17.80
2016,05,06,11,16,17.90
2016,05,06,11,17,18.10
2016,05,06,11,18,18.20
2016,05,06,11,19,18.30
2016,05,06,11,20,18.40
2016,05,06,11,21,18.50
2016,05,06,11,22,18.60
2016,05,06,11,23,18.70
2016,05,06,11,24,18.70
2016,05,06,11,25,18.70
2016,05,06,11,26,18.80
2016,05,06,11,27,18.80
2016,05,06,11,28,18.80
2016,05,06,11,29,18.70
2016,05,06,11,30,18.70
2016,05,06,11,31,18.70
2016,05,06,11,32,18.70
2016,05,06,11,33,18.70
2016,05,06,11,34,18.70
2016,05,06,11,35,18.70
2016,05,06,11,36,18.70
2016,05,06,11,37,18.70
2016,05,06,11,38,18.70
2016,05,06,11,39,18.80
2016,05,06,11,40,18.80
2016,05,06,11,41,18.80
2016,05,06,11,42,18.90
2016,05,06,11,43,18.90
2016,05,06,11,44,19.00
2016,05,06,11,45,19.00
2016,05,06,11,46,19.10
2016,05,06,11,47,19.20
2016,05,06,11,48,19.30
2016,05,06,11,49,19.40
2016,05,06,11,50,19.50
2016,05,06,11,51,19.50
2016,05,06,11,52,19.50
2016,05,06,11,53,19.50
2016,05,06,11,54,19.50
2016,05,06,11,55,19.50
2016,05,06,11,56,19.50
2016,05,06,11,57,19.50
2016,05,06,11,58,19.50
2016,05,06,11,59,19.50
2016,05,06,12,00,19.50
2016,05,06,12,01,19.60
2016,05,06,12,02,19.70
2016,05,06,12,03,19.80
2016,05,06,12,04,19.80
2016,05,06,12,05,19.90
2016,05,06,12,06,20.00
2016,05,06,12,07,20.00
2016,05,06,12,08,20.10
2016,05,06,12,09,20.20
2016,05,06,12,10,20.30
2016,05,06,12,11,20.30
2016,05,06,12,12,20.40
2016,05,06,12,13,20.40
2016,05,06,12,14,20.50
2016,05,06,12,15,20.60
2016,05,06,12,16,20.60
2016,05,06,12,17,20.70
2016,05,06,12,18,20.80
2016,05,06,12,19,20.90
2016,05,06,12,20,21.10
2016,05,06,12,21,21.20
2016,05,06,12,22,21.20
2016,05,06,12,23,21.20
2016,05,06,12,24,21.20
2016,05,06,12,25,21.20
2016,05,06,12,26,21.20
2016,05,06,12,27,21.20
2016,05,06,12,28,21.30
2016,05,06,12,29,21.30
2016,05,06,12,30,21.40
2016,05,06,12,31,21.50
2016,05,06,12,32,21.60
2016,05,06,12,33,21.70
2016,05,06,12,34,21.80
2016,05,06,12,35,21.90
2016,05,06,12,36,22.00
2016,05,06,12,37,22.10
2016,05,06,12,38,22.20
2016,05,06,12,39,22.30
2016,05,06,12,40,22.40
2016,05,06,12,41,22.50
2016,05,06,12,42,22.50
2016,05,06,12,43,22.50
2016,05,06,12,44,22.50
2016,05,06,12,45,22.50
2016,05,06,12,46,22.40
2016,05,06,12,47,22.40
2016,05,06,12,48,22.40
2016,05,06,12,49,22.40
2016,05,06,12,50,22.40
2016,05,06,12,51,22.40
2016,05,06,12,52,22.40
2016,05,06,12,53,22.50
2016,05,06,12,54,22.50
2016,05,06,12,55,22.50
2016,05,06,12,56,22.60
2016,05,06,12,57,22.70
2016,05,06,12,58,22.70
2016,05,06,12,59,22.80
2016,05,06,13,00,22.90
2016,05,06,13,01,23.00
2016,05,06,13,02,23.10
2016,05,06,13,03,23.20
2016,05,06,13,04,23.20
2016,05,06,13,05,23.20
2016,05,06,13,06,23.20
2016,05,06,13,07,23.30
2016,05,06,13,08,23.30
2016,05,06,13,09,23.30
2016,05,06,13,10,23.40
2016,05,06,13,11,23.50
2016,05,06,13,12,23.60
2016,05,06,13,13,23.60
2016,05,06,13,14,23.60
2016,05,06,13,15,23.70
2016,05,06,13,16,23.70
2016,05,06,13,17,23.80
2016,05,06,13,18,23.80
2016,05,06,13,19,23.80
2016,05,06,13,20,23.90
2016,05,06,13,21,23.90
2016,05,06,13,22,23.90
2016,05,06,13,23,23.90
2016,05,06,13,24,24.00
2016,05,06,13,25,24.00
2016,05,06,13,26,24.10
2016,05,06,13,27,24.20
2016,05,06,13,28,24.30
2016,05,06,13,29,24.40
2016,05,06,13,30,24.40
2016,05,06,13,31,24.50
2016,05,06,13,32,24.50
2016,05,06,13,33,24.60
2016,05,06,13,34,24.60
2016,05,06,13,35,24.70
2016,05,06,13,36,24.80
2016,05,06,13,37,24.80
2016,05,06,13,38,25.00
2016,05,06,13,39,25.10
2016,05,06,13,40,25.20
2016,05,06,13,41,25.20
2016,05,06,13,42,25.20
2016,05,06,13,43,25.20
2016,05,06,13,44,25.20
2016,05,06,13,45,25.30
2016,05,06,13,46,25.30
2016,05,06,13,47,25.40
2016,05,06,13,48,25.40
2016,05,06,13,49,25.50
2016,05,06,13,50,25.50
2016,05,06,13,51,25.50
2016,05,06,13,52,25.50
2016,05,06,13,53,25.50
2016,05,06,13,54,25.50
2016,05,06,13,55,25.60
2016,05,06,13,56,25.60
2016,05,06,13,57,25.70
2016,05,06,13,58,25.70
2016,05,06,13,59,25.80
2016,05,06,14,00,25.90
2016,05,06,14,01,26.00
2016,05,06,14,02,26.10
2016,05,06,14,03,26.10
2016,05,06,14,04,26.20
2016,05,06,14,05,26.20
2016,05,06,14,06,26.30
2016,05,06,14,07,26.30
2016,05,06,14,08,26.40
2016,05,06,14,09,26.40
2016,05,06,14,10,26.40
2016,05,06,14,11,26.40
2016,05,06,14,12,26.40
2016,05,06,14,13,26.50
2016,05,06,14,14,26.60
2016,05,06,14,15,26.60
2016,05,06,14,16,26.70
2016,05,06,14,17,26.80
2016,05,06,14,18,26.80
2016,05,06,14,19,26.80
2016,05,06,14,20,26.80
2016,05,06,14,21,26.90
2016,05,06,14,22,26.90
2016,05,06,14,23,26.80
2016,05,06,14,24,26.90
2016,05,06,14,25,27.00
2016,05,06,14,26,27.00
2016,05,06,14,27,26.90
2016,05,06,14,28,27.00
2016,05,06,14,29,27.00
2016,05,06,14,30,27.10
2016,05,06,14,31,27.10
2016,05,06,14,32,27.10
2016,05,06,14,33,27.20
2016,05,06,14,34,27.30
2016,05,06,14,35,27.30
2016,05,06,14,36,27.20
2016,05,06,14,37,27.20
2016,05,06,14,38,27.20
2016,05,06,14,39,27.10
2016,05,06,14,40,27.00
2016,05,06,14,41,27.00
2016,05,06,14,42,27.10
2016,05,06,14,43,27.10
2016,05,06,14,44,27.10
2016,05,06,14,45,27.10
2016,05,06,14,46,27.20
2016,05,06,14,47,27.20
2016,05,06,14,48,27.30
2016,05,06,14,49,27.30
2016,05,06,14,50,27.30
2016,05,06,14,51,27.30
2016,05,06,14,52,27.30
2016,05,06,14,53,27.30
2016,05,06,14,54,27.40
2016,05,06,14,55,27.40
2016,05,06,14,56,27.40
2016,05,06,14,57,27.40
2016,05,06,14,58,27.40
2016,05,06,14,59,27.40
2016,05,06,15,00,27.40
2016,05,06,15,01,27.40
2016,05,06,15,02,27.40
2016,05,06,15,03,27.40
2016,05,06,15,04,27.40
2016,05,06,15,05,27.40
2016,05,06,15,06,27.50
2016,05,06,15,07,27.60
2016,05,06,15,08,27.60
2016,05,06,15,09,27.70
2016,05,06,15,10,27.70
2016,05,06,15,11,27.70
2016,05,06,15,12,27.80
2016,05,06,15,13,27.80
2016,05,06,15,14,27.90
2016,05,06,15,15,28.00
2016,05,06,15,16,28.00
2016,05,06,15,17,28.00
2016,05,06,15,18,27.90
2016,05,06,15,19,27.90
2016,05,06,15,20,27.80
2016,05,06,15,21,27.80
2016,05,06,15,22,27.80
2016,05,06,15,23,27.80
2016,05,06,15,24,27.80
2016,05,06,15,25,27.80
2016,05,06,15,26,27.80
2016,05,06,15,27,27.80
2016,05,06,15,28,27.80
2016,05,06,15,29,27.80
2016,05,06,15,30,27.80
2016,05,06,15,31,27.90
2016,05,06,15,32,28.00
2016,05,06,15,33,28.00
2016,05,06,15,34,28.10
2016,05,06,15,35,28.20
2016,05,06,15,36,28.20
2016,05,06,15,37,28.20
2016,05,06,15,38,28.20
2016,05,06,15,39,28.20
2016,05,06,15,40,28.30
2016,05,06,15,41,28.30
2016,05,06,15,42,28.30
2016,05,06,15,43,28.30
2016,05,06,15,44,28.20
2016,05,06,15,45,28.20
2016,05,06,15,46,28.20
2016,05,06,15,47,28.20
2016,05,06,15,48,28.20
2016,05,06,15,49,28.20
2016,05,06,15,50,28.20
2016,05,06,15,51,28.20
2016,05,06,15,52,28.20
2016,05,06,15,53,28.30
2016,05,06,15,54,28.30
2016,05,06,15,55,28.30
2016,05,06,15,56,28.30
2016,05,06,15,57,28.20
2016,05,06,15,58,28.20
2016,05,06,15,59,28.20
2016,05,06,16,00,28.30
2016,05,06,16,01,28.40
2016,05,06,16,02,28.50
2016,05,06,16,03,28.50
2016,05,06,16,04,28.50
2016,05,06,16,05,28.40
2016,05,06,16,06,28.40
2016,05,06,16,07,28.40
2016,05,06,16,08,28.40
2016,05,06,16,09,28.50
2016,05,06,16,10,28.60
2016,05,06,16,11,28.60
2016,05,06,16,12,28.70
2016,05,06,16,13,28.60
2016,05,06,16,14,28.60
2016,05,06,16,15,28.60
2016,05,06,16,16,28.70
2016,05,06,16,17,28.80
2016,05,06,16,18,28.80
2016,05,06,16,19,28.90
2016,05,06,16,20,28.90
2016,05,06,16,21,28.90
2016,05,06,16,22,29.00
2016,05,06,16,23,29.00
2016,05,06,16,24,29.00
2016,05,06,16,25,29.10
2016,05,06,16,26,29.10
2016,05,06,16,27,29.20
2016,05,06,16,28,29.20
2016,05,06,16,29,29.30
2016,05,06,16,30,29.30
2016,05,06,16,31,29.30
2016,05,06,16,32,29.30
2016,05,06,16,33,29.30
2016,05,06,16,34,29.30
2016,05,06,16,35,29.30
2016,05,06,16,36,29.40
2016,05,06,16,37,29.30
2016,05,06,16,38,29.30
2016,05,06,16,39,29.30
2016,05,06,16,40,29.40
2016,05,06,16,41,29.40
2016,05,06,16,42,29.40
2016,05,06,16,43,29.40
2016,05,06,16,44,29.40
2016,05,06,16,45,29.30
2016,05,06,16,46,29.30
2016,05,06,16,47,29.30
2016,05,06,16,48,29.30
2016,05,06,16,49,29.30
2016,05,06,16,50,29.30
2016,05,06,16,51,29.30
2016,05,06,16,52,29.40
2016,05,06,16,53,29.40
2016,05,06,16,54,29.40
2016,05,06,16,55,29.40
2016,05,06,16,56,29.40
2016,05,06,16,57,29.40
2016,05,06,16,58,29.40
2016,05,06,16,59,29.30
2016,05,06,17,00,29.30
2016,05,06,17,01,29.40
2016,05,06,17,02,29.40
2016,05,06,17,03,29.50
2016,05,06,17,04,29.50
2016,05,06,17,05,29.60
2016,05,06,17,06,29.60
2016,05,06,17,07,29.60
2016,05,06,17,08,29.60
2016,05,06,17,09,29.70
2016,05,06,17,10,29.70
2016,05,06,17,11,29.70
2016,05,06,17,12,29.70
2016,05,06,17,13,29.80
2016,05,06,17,14,29.80
2016,05,06,17,15,29.80
2016,05,06,17,16,29.70
2016,05,06,17,17,29.60
2016,05,06,17,18,29.60
2016,05,06,17,19,29.60
2016,05,06,17,20,29.60
2016,05,06,17,21,29.60
2016,05,06,17,22,29.60
2016,05,06,17,23,29.60
2016,05,06,17,24,29.60
2016,05,06,17,25,29.60
2016,05,06,17,26,29.60
2016,05,06,17,27,29.50
2016,05,06,17,28,29.40
2016,05,06,17,29,29.50
2016,05,06,17,30,29.50
2016,05,06,17,31,29.50
2016,05,06,17,32,29.50
2016,05,06,17,33,29.40
2016,05,06,17,34,29.40
2016,05,06,17,35,29.40
2016,05,06,17,36,29.40
2016,05,06,17,37,29.40
2016,05,06,17,38,29.50
2016,05,06,17,39,29.60
2016,05,06,17,40,29.60
2016,05,06,17,41,29.60
2016,05,06,17,42,29.50